Regional Weather Roundup
Issued by NWS

Home | Current Version | Previous Version | Graphics & Text | Print | Product List | Glossary On
Versions: 1 2 3 4 5 6 7 8 9 10 11 12 13 14 15 16 17 18 19 20 21 22 23 24 25 26 27 28
000
ASUS45 KTFX 250910
RWRMT
MONTANA REGIONAL WEATHER ROUNDUP
NATIONAL WEATHER SERVICE GREAT FALLS MT
300 AM MDT SUN SEP 25 2016

NOTE: "FAIR" INDICATES FEW OR NO CLOUDS BELOW 12000 FEET WITH NO
SIGNIFICANT WEATHER AND/OR OBSTRUCTIONS TO VISIBILITY.

MTZ001>007-043-251000-
WEST OF THE DIVIDE

CITY           SKY/WX    TMP DP  RH WIND       PRES   REMARKS
KALISPELL      PTCLDY    36  34  92 CALM      30.38R
MISSOULA       CLEAR     43  37  79 SE6       30.45R
BUTTE          CLEAR     31  28  89 SE5       30.45R
MULLAN PASS    CLOUDY    40  32  73 W3        30.44S
ANACONDA         N/A     37  30  75 SW7       30.44R
DEER LODGE       N/A     36  28  75 CALM      30.46S
EUREKA           N/A     45  37  76 SE3       30.36F
HAMILTON         N/A     43  36  75 S6        30.45R
LIBBY            N/A     39  36  87 CALM      30.38S
PLAINS           N/A     40  34  79 CALM      30.40
RONAN            N/A     38  32  79 CALM      30.41R
$$

MTZ008-052>055-251000-
SOUTHWEST MONTANA

CITY           SKY/WX    TMP DP  RH WIND       PRES   REMARKS
BOZEMAN        CLEAR     36  32  85 SE8       30.42R WCI  30
DILLON         CLEAR     37  31  78 S9        30.42S WCI  30
W YELLOWSTONE    N/A     27  27 100 CALM      30.46S
ENNIS          CLEAR     37  30  75 SE9       30.47S WCI  31
THREE FORKS      N/A     33  33 100 CALM      30.35R
TWIN BRIDGES     N/A     35  26  70 E5        30.36
$$

MTZ009-010-012-014-046-048-049-054-251000-
EAST SLOPES AND CENTRAL MONTANA

CITY           SKY/WX    TMP DP  RH WIND       PRES   REMARKS
CUT BANK       CLEAR     41  34  76 W9        30.30R
GREAT FALLS    CLEAR     40  35  83 S12       30.32F
MALMSTROM AFB  CLEAR     42  37  81 SW13      30.32F
HELENA         CLEAR     49  32  52 CALM      30.38R
AUGUSTA          N/A     40  32  72 SW6       30.33R
BOWMANS CRNR     N/A     41  33  72 S8        30.33S
CHOTEAU          N/A     43  34  70 SW8       30.33R
CONRAD           N/A     50  38  63 W13       30.28F
FAIRFIELD        N/A     43  33  66 SW5       30.31S
POWER            N/A     36  33  87 SW7       30.31S WCI  30
RAYNESFORD       N/A     39  34  83 E2        30.34S
$$

MTZ011-013-016-021-045-047-050-051-251000-
NORTH CENTRAL MONTANA

CITY           SKY/WX    TMP DP  RH WIND       PRES   REMARKS
HAVRE          CLEAR     39  38  96 W7        30.28S
LEWISTOWN      MOCLDY    39  37  92 SW5       30.33R
N BAR RANCH      N/A     41  37  87 NW6       30.36R
CHINOOK          N/A     39  37  93 CALM      30.28R
DENTON           N/A     43  38  83 W10       30.28S
GEYSER           N/A     40  32  72 SW6       30.33R
GRASS RANGE      N/A     44  41  90 W14       30.29R
JUDITH GAP       N/A     42  34  73 SW7       30.33S
ROY              N/A     43  40  89 MISG      30.29R
STANFORD       PTSUNNY   47  35  64 W13       30.32S
WINIFRED         N/A     44  40  87 MISG      30.30S
$$

MTZ017>020-022>027-061-062-251000-
NORTHEAST MONTANA

CITY           SKY/WX    TMP DP  RH WIND       PRES   REMARKS
GLASGOW        CLEAR     43  36  76 W14       30.19R
JORDAN           N/A     40  37  89 W7        30.24R
SIDNEY         CLOUDY    49  44  83 NW16      30.08R
WOLF POINT     CLEAR     49  38  65 NW15      30.15R
PLENTYWOOD       N/A     46  41  81 NW20      30.05R
POPLAR           N/A     48  39  71 W14G22    30.13R
SCOBEY           N/A     44  33  65 W14       30.10
$$

MTZ028>42-056>058-251000-
SOUTHCENTRAL AND SOUTHEAST MONTANA

CITY           SKY/WX    TMP DP  RH WIND       PRES   REMARKS
BAKER          MOCLDY    48 N/A N/A NW21G32   30.13R
BILLINGS       MOCLDY    50  42  74 NW13      30.33R
LIVINGSTON     CLEAR     43  32  65 W15       30.38R
MILES CITY     CLEAR     48  40  73 W22       30.22R
BIG TIMBER     CLEAR     46  32  57 W15       30.39R
FORSYTH          N/A     46  46 100 W7        30.27R
HARLOWTON        N/A     42  35  74 W17       30.35R
LAUREL           N/A     46  37  70 CALM      30.29R
ROUNDUP          N/A     46  38  74 SW6       30.21R
$$

REGIONAL REPORTS...DAKOTAS

CITY           SKY/WX    TMP DP  RH WIND       PRES   REMARKS
WILLISTON      CLOUDY    51  45  79 NW17      30.01R
MINOT          CLOUDY    52  50  93 NW26G35   29.81S
DICKINSON      LGT RAIN  48  45  89 NW26G38   29.98R
CROSBY         LGT RAIN  48  48 100 NW21      29.99R
WATFORD CITY   LGT RAIN  48  48 100 W16       30.02R
BISMARCK       LGT RAIN  54  52  93 NW28G37   29.81R
GRAND FORKS    CLEAR     61  57  87 S9        29.72F
FARGO          CLEAR     60  53  77 S12       29.79R
BUFFALO SD       N/A     51  47  86 NW25G33   30.04R
RAPID CITY     CLOUDY    51  44  77 NW15G25   30.17R
$$

REGIONAL REPORTS...WYOMING/IDAHO/WASHINGTON

CITY           SKY/WX    TMP DP  RH WIND       PRES   REMARKS
GILLETTE       PTCLDY    45  43  93 W14       30.29R
SHERIDAN       CLOUDY    50  40  68 NW13      30.32R
BUFFALO WY     CLOUDY    48  35  60 N22G28    30.31R
CODY           CLEAR     39  37  93 W3        30.37S
YELLOWSTONE LA   N/A     27  26  96 CALM      30.47F
IDAHO FALLS    CLEAR     42  36  79 S7        30.43R
SALMON         CLEAR     34  30  86 CALM      30.46R
BOISE          CLEAR     50  36  58 SE5       30.40R
SPOKANE        CLOUDY    54  35  48 S5        30.39R
$$

REGIONAL REPORTS...ALBERTA

CITY           SKY/WX    TMP DP  RH WIND       PRES   REMARKS
EDMONTON       CLEAR     37  28  70 W9        30.22R WCI  31
LETHBRIDGE     CLEAR     43  34  70 W20       30.27R
MEDICINE HAT   PTCLDY    37  36  93 SW3       30.24S
WATERTON GATE    N/A     48  32  53 SW15G23     N/A
MILK RIVER       N/A     37  34  87 NW10        N/A  WCI  30
ONEFOUR          N/A     41  36  81 NW8         N/A
$$

REGIONAL REPORTS...SASKATCHEWAN

CITY           SKY/WX    TMP DP  RH WIND       PRES   REMARKS
SWIFT CURRENT  CLEAR     37  34  87 W9        30.17R WCI  31
REGINA         MOCLDY    45  41  87 NW16G22   30.02R
SASKATOON      CLEAR     41  37  87 NW13      30.08S
CYPRESS HILLS    N/A     37  28  70 NW3         N/A
VAL MARIE        N/A     41  32  70 NW8         N/A
ROCKGLEN         N/A     43  36  75 NW15G22     N/A
ASSINIBOIA       N/A     36  32  87 W8          N/A  WCI  29
$$




USA.gov is the U.S. government's official web portal to all federal, state and local government web resources and services.